DW2465 Weather Reports


Display with metric or nautical units.
time (UTC)temp
F
wind
direction
speed
MPH
gust
MPH
rain 1hr
in
rain 24hr
in
rain mn
in
humidity
%
barometer
mb
20260506210005 43 215 0.0 0.0 0.00 0.00 0.00 50 1016.4
20260506204600 43 266 0.0 0.0 0.00 0.00 0.00 50 1016.4
20260506203053 42 279 0.0 0.0 0.00 0.00 0.00 51 1016.6
20260506201556 42 269 0.0 0.0 0.00 0.00 0.00 51 1016.5
20260506200051 42 228 0.0 0.0 0.00 0.00 0.00 53 1016.7
20260506194551 41 232 0.0 0.0 0.00 0.00 0.00 52 1016.6
20260506193048 41 259 0.0 0.0 0.00 0.00 0.00 53 1016.7
20260506191547 41 271 0.0 0.0 0.00 0.00 0.00 54 1016.8
20260506190044 40 300 0.0 0.0 0.00 0.00 0.00 55 1016.9
20260506184549 40 240 0.0 0.0 0.00 0.00 0.00 56 1016.9
20260506183040 40 259 0.0 0.0 0.00 0.00 0.00 55 1016.9
20260506181540 40 309 0.0 0.0 0.00 0.00 0.00 55 1016.9
20260506180040 40 244 0.0 0.0 0.00 0.00 0.00 55 1017.1
20260506174538 40 290 0.0 0.0 0.00 0.00 0.00 54 1017.1
20260506173016 40 244 0.0 0.0 0.00 0.00 0.00 54 1017.0
20260506171508 40 360 0.0 0.0 0.00 0.00 0.00 54 1017.1
20260506170004 40 316 0.0 0.0 0.00 0.00 0.00 56 1017.3
20260506164501 39 360 0.0 0.0 0.00 0.00 0.00 55 1017.5
20260506163107 39 290 0.0 0.0 0.00 0.00 0.00 56 1017.4
20260506161639 38 316 0.0 0.0 0.00 0.00 0.00 57 1017.4
20260506160026 38 260 0.0 0.0 0.00 0.00 0.00 57 1017.3
20260506154524 38 269 0.0 0.0 0.00 0.00 0.00 58 1017.3
20260506153057 38 317 0.0 0.0 0.00 0.00 0.00 58 1017.2
20260506151552 37 319 0.0 0.0 0.00 0.00 0.00 58 1017.1
20260506150049 37 328 0.0 0.0 0.00 0.00 0.00 59 1017.1
20260506144548 37 283 0.0 0.0 0.00 0.00 0.00 59 1017.1
20260506143047 37 312 0.0 0.0 0.00 0.00 0.00 59 1017.2
20260506141547 37 360 0.0 0.0 0.00 0.00 0.00 60 1017.2
20260506140043 37 278 0.0 0.0 0.00 0.00 0.00 61 1017.1
20260506134541 36 306 0.0 0.0 0.00 0.00 0.00 62 1017.0
20260506133041 36 304 0.0 0.0 0.00 0.00 0.00 62 1016.9
20260506131548 36 306 0.0 0.0 0.00 0.00 0.00 64 1016.7
20260506130053 36 294 0.0 0.0 0.00 0.00 0.00 64 1016.7
20260506124535 35 306 0.0 0.0 0.00 0.00 0.00 65 1016.5
20260506123034 35 273 0.0 0.0 0.00 0.00 0.00 66 1016.3
20260506121534 34 301 0.0 0.0 0.00 0.00 0.00 68 1016.1
20260506120032 34 286 0.0 0.0 0.00 0.00 0.00 70 1015.7
20260506114533 33 325 0.0 0.0 0.00 0.00 0.00 72 1015.6
20260506113028 33 301 0.0 0.0 0.00 0.00 0.00 73 1015.3
20260506111527 33 294 0.0 0.0 0.00 0.00 0.00 73 1015.3
20260506110027 33 284 0.0 0.0 0.00 0.00 0.00 74 1015.5
20260506104527 32 277 0.0 0.0 0.00 0.00 0.00 75 1015.6
20260506103025 32 265 0.0 0.0 0.00 0.00 0.00 75 1015.5
20260506101533 32 271 0.0 0.0 0.00 0.00 0.00 74 1015.0
20260506100017 32 275 0.0 0.0 0.00 0.00 0.00 73 1014.9
20260506094522 32 272 0.0 0.0 0.00 0.00 0.00 73 1014.9
20260506093020 32 261 0.0 0.0 0.00 0.00 0.00 73 1015.0
20260506091516 32 263 0.0 0.0 0.00 0.00 0.00 73 1015.0
20260506090012 32 290 0.0 0.0 0.00 0.00 0.00 72 1014.9
20260506084510 33 292 0.0 0.0 0.00 0.00 0.00 71 1014.8
20260506083006 33 292 0.0 0.0 0.00 0.00 0.00 70 1014.6
20260506081505 33 303 0.0 0.0 0.00 0.00 0.00 69 1014.8
20260506073039 34 304 0.0 0.0 0.00 0.00 0.00 65 1014.4
20260506071525 34 296 0.0 0.0 0.00 0.00 0.00 66 1014.2
20260506061548 35 314 0.0 0.0 0.00 0.00 0.00 62 1014.4
20260506044618 38 315 0.0 0.0 0.00 0.00 0.00 59 1013.6
20260506043035 38 305 0.0 0.0 0.00 0.00 0.00 58 1013.6
20260506041534 38 307 0.0 0.0 0.00 0.00 0.00 58 1013.6
20260506040035 39 281 0.0 0.0 0.00 0.00 0.00 57 1013.7
20260506034559 39 302 0.0 0.0 0.00 0.00 0.00 57 1013.7
20260506033032 40 299 0.0 0.0 0.00 0.00 0.00 56 1013.4
20260506031529 40 279 0.0 0.0 0.00 0.00 0.00 55 1013.3
20260506030026 41 309 0.0 0.0 0.00 0.00 0.00 54 1013.2
20260506024522 41 294 0.0 0.0 0.00 0.00 0.00 53 1012.9
20260506023020 42 287 0.0 0.0 0.00 0.00 0.00 52 1012.7
20260506021519 42 315 0.0 0.0 0.00 0.00 0.00 51 1012.6
20260506020017 43 274 0.0 0.0 0.00 0.00 0.00 50 1012.3
20260506014517 43 281 0.0 0.0 0.00 0.00 0.00 48 1012.1
20260506013012 44 318 0.0 0.0 0.00 0.00 0.00 47 1011.9
20260506011514 44 293 0.0 0.0 0.00 0.00 0.00 45 1011.6
20260506010012 45 267 0.0 0.0 0.00 0.00 0.00 44 1011.7
20260506004510 46 321 0.0 0.0 0.00 0.00 0.00 44 1011.5
20260506003005 46 333 0.0 0.0 0.00 0.00 0.00 43 1011.3
20260506001504 47 267 0.0 0.0 0.00 0.00 0.00 42 1011.1
20260506000002 47 275 0.0 0.0 0.00 0.00 0.00 42 1011.0
20260505234553 47 326 0.0 0.0 0.00 0.00 0.00 41 1010.9
20260505233036 48 223 0.0 0.0 0.00 0.00 0.00 40 1010.6
20260505231532 48 254 0.0 0.0 0.00 0.00 0.00 40 1010.5
20260505230037 48 244 0.0 0.0 0.00 0.00 0.00 41 1010.4
20260505224528 48 269 0.0 0.0 0.00 0.00 0.00 41 1010.5
20260505223027 48 272 0.0 0.0 0.00 0.00 0.00 41 1010.6
20260505221525 47 279 0.0 0.0 0.00 0.00 0.00 42 1010.4
20260505220033 47 298 0.0 0.0 0.00 0.00 0.00 42 1010.5
20260505214529 47 244 0.0 0.0 0.00 0.00 0.00 42 1010.7
20260505213025 47 322 0.0 0.0 0.00 0.00 0.00 41 1010.9